Regional Weather Roundup
Issued by NWS

Home | Current Version | Previous Version | Text Only | Print | Product List | Glossary On
Versions: 1 2 3 4 5 6 7 8 9 10 11 12 13 14 15 16 17 18 19 20 21 22 23 24 25 26 27 28 29 30 31 32 33 34 35 36 37 38 39 40 41 42 43 44 45 46 47 48 49 50
573
ASUS46 KPQR 290710
RWROR

OREGON REGIONAL WEATHER ROUNDUP
NATIONAL WEATHER SERVICE PORTLAND OR
1200 AM PDT SUN MAY 29 2016

NOTE: "FAIR" INDICATES FEW OR NO CLOUDS BELOW 12,000 FEET WITH
NO SIGNIFICANT WEATHER AND/OR OBSTRUCTIONS TO VISIBILITY.

ORZ001>013-290800-
NORTHWEST OREGON


CITY           SKY/WX    TMP DP  RH WIND       PRES   REMARKS
ASTORIA        CLOUDY    54  53  97 SW3       30.07S FOG
NEWPORT        CLOUDY    54  50  87 CALM      30.12S
PORTLAND       CLOUDY    59  50  72 NW6       30.07R
VANCOUVER WA   MOCLDY    58  50  75 VRB3      30.06R
SCAPPOOSE      PTCLDY    54  49  83 VRB3      30.05S
HILLSBORO      CLEAR     53  46  77 CALM      30.06R
AURORA         CLOUDY    56  48  74 SW3       30.07S
MCMINNVILLE    CLEAR     52  47  83 SW3       30.08R
SALEM          CLEAR     55  48  77 N6        30.07R
CORVALLIS        N/A     54  46  76 N9        30.09S
EUGENE         CLEAR     54  43  66 CALM      30.07S
$$

ORZ021-028-290800-
SOUTHWEST OREGON


CITY           SKY/WX    TMP DP  RH WIND       PRES   REMARKS
NORTH BEND     CLOUDY    57  52  82 N8        30.11S
BROOKINGS      CLEAR     52  46  80 E5        30.03R
ROSEBURG       CLEAR     58  41  53 N6        30.06S
SEXTON SUMMIT  CLEAR     49  40  71 N15       30.07F
MEDFORD        CLEAR     62  43  49 CALM      30.03R
$$

ORZ014>016-041-290800-
COLUMBIA GORGE


CITY           SKY/WX    TMP DP  RH WIND       PRES   REMARKS
TROUTDALE      PTCLDY    58  49  72 SW7       30.06R
THE DALLES     PTCLDY    61  43  51 NW7       30.00R
$$

ORZ029>031-041-044-049-050-061>064-502-503-505>511-290800-
EASTERN OREGON


CITY           SKY/WX    TMP DP  RH WIND       PRES   REMARKS
REDMOND        CLEAR     54  41  61 NW6       30.05R
BEND           CLEAR     54  39  58 W3        30.06S
PRINEVILLE     MOCLDY    54  43  66 NW3       30.05S
KLAMATH FALLS  CLEAR     53  40  61 N3        30.06R
LAKEVIEW       CLEAR     43  36  75 N5        30.08R
HERMISTON      PTCLDY    57  42  57 S9        29.97R
PENDLETON      PTCLDY    54  41  61 E5        29.99R
JOHN DAY         N/A    N/A N/A N/A MISG        N/A
MEACHAM        CLEAR     40  36  86 CALM      30.05S
LA GRANDE      CLOUDY    52  36  54 CALM      30.02S
BAKER CITY     CLEAR     41  36  82 CALM      30.05R
BURNS          CLEAR     43  30  60 W5        30.04S
ROME             N/A     45  27  49 CALM      30.04S
ONTARIO        PTCLDY    51  39  63 CALM      30.02S
$$




USA.gov is the U.S. government's official web portal to all federal, state and local government web resources and services.